Time,TemperatureF,DewpointF,PressureIn,WindDirection,WindDirectionDegrees,WindSpeedMPH,WindSpeedGustMPH,Humidity,HourlyPrecipIn,Conditions,Clouds,dailyrainin,SoftwareType,DateUTC
2013-06-17 00:02:00,53.0,48.0,-100.00,West,270,2.0,3.0,83,-99.99,,,-99.99,,2013-06-17 07:02:00,
2013-06-17 00:11:00,53.0,48.0,-100.00,West,270,2.0,3.0,83,-99.99,,,-99.99,,2013-06-17 07:11:00,
2013-06-17 00:22:00,53.0,48.0,-100.00,West,270,1.0,1.0,84,-99.99,,,-99.99,,2013-06-17 07:22:00,
2013-06-17 00:33:00,53.0,48.0,-100.00,West,270,1.0,1.0,84,-99.99,,,-99.99,,2013-06-17 07:33:00,
2013-06-17 00:42:00,52.0,48.0,-100.00,North,-999,0.0,0.0,85,-99.99,,,-99.99,,2013-06-17 07:42:00,
2013-06-17 00:53:00,52.0,48.0,-100.00,SW,225,1.0,1.0,85,-99.99,,,-99.99,,2013-06-17 07:53:00,
2013-06-17 01:01:00,52.0,47.0,-100.00,SW,225,1.0,1.0,85,-99.99,,,-99.99,,2013-06-17 08:01:00,
2013-06-17 01:11:00,52.0,47.0,-100.00,SW,225,1.0,1.0,85,-99.99,,,-99.99,,2013-06-17 08:11:00,
2013-06-17 01:22:00,51.0,47.0,-100.00,North,-999,0.0,0.0,86,-99.99,,,-99.99,,2013-06-17 08:22:00,
2013-06-17 01:33:00,51.0,47.0,-100.00,North,-999,0.0,0.0,86,-99.99,,,-99.99,,2013-06-17 08:33:00,
2013-06-17 01:43:00,51.0,47.0,-100.00,North,-999,0.0,0.0,87,-99.99,,,-99.99,,2013-06-17 08:43:00,
2013-06-17 01:53:00,50.0,47.0,-100.00,North,-999,0.0,0.0,88,-99.99,,,-99.99,,2013-06-17 08:53:00,
2013-06-17 02:02:00,50.0,47.0,-100.00,North,-999,0.0,0.0,88,-99.99,,,-99.99,,2013-06-17 09:02:00,
2013-06-17 02:11:00,50.0,46.0,-100.00,North,-999,0.0,0.0,89,-99.99,,,-99.99,,2013-06-17 09:11:00,
2013-06-17 02:22:00,50.0,46.0,-100.00,North,-999,0.0,0.0,89,-99.99,,,-99.99,,2013-06-17 09:22:00,
2013-06-17 02:34:00,49.0,46.0,-100.00,North,-999,0.0,0.0,89,-99.99,,,-99.99,,2013-06-17 09:34:00,
2013-06-17 02:43:00,49.0,46.0,-100.00,North,-999,0.0,0.0,90,-99.99,,,-99.99,,2013-06-17 09:43:00,
2013-06-17 02:53:00,49.0,46.0,-100.00,North,-999,0.0,0.0,90,-99.99,,,-99.99,,2013-06-17 09:53:00,
2013-06-17 03:02:00,48.0,45.0,-100.00,North,-999,0.0,0.0,90,-99.99,,,-99.99,,2013-06-17 10:02:00,
2013-06-17 03:12:00,48.0,45.0,-100.00,North,-999,0.0,0.0,90,-99.99,,,-99.99,,2013-06-17 10:12:00,
2013-06-17 03:22:00,48.0,45.0,-100.00,North,-999,0.0,0.0,90,-99.99,,,-99.99,,2013-06-17 10:22:00,
2013-06-17 03:33:00,48.0,45.0,-100.00,North,-999,0.0,0.0,90,-99.99,,,-99.99,,2013-06-17 10:33:00,
2013-06-17 03:42:00,48.0,45.0,-100.00,North,-999,0.0,0.0,90,-99.99,,,-99.99,,2013-06-17 10:42:00,
2013-06-17 03:53:00,47.0,45.0,-100.00,North,-999,0.0,0.0,91,-99.99,,,-99.99,,2013-06-17 10:53:00,
2013-06-17 04:02:00,47.0,45.0,-100.00,North,-999,0.0,0.0,91,-99.99,,,-99.99,,2013-06-17 11:02:00,
2013-06-17 04:11:00,47.0,45.0,-100.00,North,-999,0.0,0.0,91,-99.99,,,-99.99,,2013-06-17 11:11:00,
2013-06-17 04:23:00,47.0,45.0,-100.00,North,-999,0.0,0.0,91,-99.99,,,-99.99,,2013-06-17 11:23:00,
2013-06-17 04:33:00,47.0,45.0,-100.00,North,-999,0.0,0.0,91,-99.99,,,-99.99,,2013-06-17 11:33:00,
2013-06-17 04:43:00,47.0,45.0,-100.00,North,-999,0.0,0.0,91,-99.99,,,-99.99,,2013-06-17 11:43:00,
2013-06-17 04:53:00,47.0,44.0,-100.00,North,-999,0.0,0.0,91,-99.99,,,-99.99,,2013-06-17 11:53:00,
2013-06-17 05:02:00,46.0,44.0,-100.00,North,-999,0.0,0.0,91,-99.99,,,-99.99,,2013-06-17 12:02:00,
2013-06-17 05:11:00,46.0,44.0,-100.00,North,-999,0.0,0.0,91,-99.99,,,-99.99,,2013-06-17 12:11:00,
2013-06-17 05:22:00,46.0,43.0,-100.00,North,-999,0.0,0.0,91,-99.99,,,-99.99,,2013-06-17 12:22:00,
2013-06-17 05:33:00,45.0,43.0,-100.00,North,-999,0.0,0.0,91,-99.99,,,-99.99,,2013-06-17 12:33:00,
2013-06-17 05:43:00,45.0,43.0,-100.00,North,-999,0.0,0.0,91,-99.99,,,-99.99,,2013-06-17 12:43:00,
2013-06-17 05:53:00,45.0,43.0,-100.00,North,-999,0.0,0.0,91,-99.99,,,-99.99,,2013-06-17 12:53:00,
2013-06-17 06:01:00,45.0,43.0,-100.00,North,-999,0.0,0.0,91,-99.99,,,-99.99,,2013-06-17 13:01:00,
2013-06-17 06:11:00,45.0,42.0,-100.00,North,-999,0.0,0.0,91,-99.99,,,-99.99,,2013-06-17 13:11:00,
2013-06-17 06:22:00,45.0,42.0,-100.00,North,-999,0.0,0.0,91,-99.99,,,-99.99,,2013-06-17 13:22:00,
2013-06-17 06:32:00,45.0,42.0,-100.00,North,-999,0.0,0.0,91,-99.99,,,-99.99,,2013-06-17 13:32:00,
2013-06-17 06:43:00,45.0,42.0,-100.00,North,-999,0.0,0.0,91,-99.99,,,-99.99,,2013-06-17 13:43:00,
2013-06-17 06:52:00,44.0,42.0,-100.00,North,-999,0.0,0.0,91,-99.99,,,-99.99,,2013-06-17 13:52:00,
2013-06-17 07:02:00,44.0,42.0,-100.00,North,-999,0.0,0.0,91,-99.99,,,-99.99,,2013-06-17 14:02:00,
2013-06-17 07:11:00,44.0,42.0,-100.00,North,-999,0.0,0.0,91,-99.99,,,-99.99,,2013-06-17 14:11:00,
2013-06-17 07:22:00,45.0,42.0,-100.00,North,-999,0.0,0.0,91,-99.99,,,-99.99,,2013-06-17 14:22:00,
2013-06-17 07:34:00,46.0,43.0,-100.00,North,-999,0.0,0.0,91,-99.99,,,-99.99,,2013-06-17 14:34:00,
2013-06-17 07:43:00,46.0,43.0,-100.00,North,-999,0.0,0.0,91,-99.99,,,-99.99,,2013-06-17 14:43:00,
2013-06-17 07:53:00,47.0,44.0,-100.00,North,-999,0.0,0.0,91,-99.99,,,-99.99,,2013-06-17 14:53:00,
2013-06-17 08:01:00,47.0,45.0,-100.00,North,-999,0.0,0.0,91,-99.99,,,-99.99,,2013-06-17 15:01:00,
2013-06-17 08:12:00,47.0,45.0,-100.00,North,-999,0.0,0.0,91,-99.99,,,-99.99,,2013-06-17 15:12:00,
2013-06-17 08:22:00,47.0,45.0,-100.00,North,-999,0.0,0.0,91,-99.99,,,-99.99,,2013-06-17 15:22:00,
2013-06-17 08:33:00,49.0,46.0,-100.00,North,-999,0.0,0.0,91,-99.99,,,-99.99,,2013-06-17 15:33:00,
2013-06-17 08:43:00,50.0,47.0,-100.00,North,-999,0.0,0.0,91,-99.99,,,-99.99,,2013-06-17 15:43:00,
2013-06-17 08:52:00,51.0,49.0,-100.00,North,-999,0.0,0.0,91,-99.99,,,-99.99,,2013-06-17 15:52:00,
2013-06-17 09:02:00,53.0,49.0,-100.00,North,-999,0.0,0.0,89,-99.99,,,-99.99,,2013-06-17 16:02:00,
2013-06-17 09:11:00,53.0,49.0,-100.00,North,-999,0.0,0.0,89,-99.99,,,-99.99,,2013-06-17 16:11:00,
2013-06-17 09:22:00,53.0,49.0,-100.00,North,-999,0.0,0.0,86,-99.99,,,-99.99,,2013-06-17 16:22:00,
2013-06-17 09:33:00,56.0,49.0,-100.00,North,-999,0.0,0.0,77,-99.99,,,-99.99,,2013-06-17 16:33:00,
2013-06-17 09:43:00,56.0,49.0,-100.00,North,-999,0.0,0.0,77,-99.99,,,-99.99,,2013-06-17 16:43:00,
2013-06-17 09:53:00,57.0,47.0,-100.00,North,-999,0.0,0.0,69,-99.99,,,-99.99,,2013-06-17 16:53:00,
2013-06-17 10:02:00,57.0,47.0,-100.00,North,-999,0.0,0.0,68,-99.99,,,-99.99,,2013-06-17 17:02:00,
2013-06-17 10:11:00,57.0,47.0,-100.00,North,-999,0.0,0.0,68,-99.99,,,-99.99,,2013-06-17 17:11:00,
2013-06-17 10:22:00,58.0,47.0,-100.00,North,-999,0.0,0.0,65,-99.99,,,-99.99,,2013-06-17 17:22:00,
2013-06-17 10:33:00,58.0,47.0,-100.00,North,-999,0.0,0.0,65,-99.99,,,-99.99,,2013-06-17 17:33:00,
2013-06-17 10:43:00,59.0,47.0,-100.00,North,-999,0.0,0.0,63,-99.99,,,-99.99,,2013-06-17 17:43:00,
2013-06-17 10:52:00,59.0,46.0,-100.00,North,-999,0.0,0.0,62,-99.99,,,-99.99,,2013-06-17 17:52:00,
2013-06-17 11:01:00,60.0,46.0,-100.00,North,-999,0.0,0.0,60,-99.99,,,-99.99,,2013-06-17 18:01:00,
2013-06-17 11:12:00,60.0,46.0,-100.00,North,-999,0.0,0.0,60,-99.99,,,-99.99,,2013-06-17 18:12:00,
2013-06-17 11:23:00,61.0,46.0,-100.00,East,90,0.0,1.0,57,-99.99,,,-99.99,,2013-06-17 18:23:00,
2013-06-17 11:33:00,61.0,46.0,-100.00,East,90,0.0,1.0,57,-99.99,,,-99.99,,2013-06-17 18:33:00,
2013-06-17 11:43:00,63.0,46.0,-100.00,North,-999,0.0,0.0,55,-99.99,,,-99.99,,2013-06-17 18:43:00,
2013-06-17 11:53:00,65.0,47.0,-100.00,North,-999,0.0,0.0,53,-99.99,,,-99.99,,2013-06-17 18:53:00,
2013-06-17 12:02:00,67.0,46.0,-100.00,South,180,1.0,2.0,48,-99.99,,,-99.99,,2013-06-17 19:02:00,
2013-06-17 12:11:00,67.0,46.0,-100.00,South,180,1.0,2.0,48,-99.99,,,-99.99,,2013-06-17 19:11:00,
2013-06-17 12:22:00,69.0,48.0,-100.00,North,-999,0.0,0.0,46,-99.99,,,-99.99,,2013-06-17 19:22:00,
2013-06-17 12:33:00,69.0,45.0,-100.00,North,0,0.0,1.0,42,-99.99,,,-99.99,,2013-06-17 19:33:00,
2013-06-17 12:43:00,69.0,45.0,-100.00,North,0,0.0,1.0,42,-99.99,,,-99.99,,2013-06-17 19:43:00,
2013-06-17 13:02:00,68.0,46.0,-100.00,SW,225,3.0,5.0,46,-99.99,,,-99.99,,2013-06-17 20:02:00,
2013-06-17 13:11:00,68.0,46.0,-100.00,SW,225,3.0,5.0,46,-99.99,,,-99.99,,2013-06-17 20:11:00,
2013-06-17 13:22:00,68.0,46.0,-100.00,SW,225,3.0,5.0,46,-99.99,,,-99.99,,2013-06-17 20:22:00,
2013-06-17 13:34:00,67.0,47.0,-100.00,SW,225,3.0,6.0,48,-99.99,,,-99.99,,2013-06-17 20:34:00,
2013-06-17 13:43:00,68.0,47.0,-100.00,SW,225,4.0,7.0,47,-99.99,,,-99.99,,2013-06-17 20:43:00,
2013-06-17 13:52:00,68.0,47.0,-100.00,West,270,1.0,2.0,47,-99.99,,,-99.99,,2013-06-17 20:52:00,
2013-06-17 14:01:00,66.0,46.0,-100.00,SW,225,4.0,8.0,49,-99.99,,,-99.99,,2013-06-17 21:01:00,
2013-06-17 14:12:00,66.0,46.0,-100.00,SW,225,4.0,8.0,49,-99.99,,,-99.99,,2013-06-17 21:12:00,
2013-06-17 14:22:00,66.0,47.0,-100.00,SW,225,6.0,9.0,50,-99.99,,,-99.99,,2013-06-17 21:22:00,
2013-06-17 14:33:00,64.0,46.0,-100.00,West,270,6.0,9.0,53,-99.99,,,-99.99,,2013-06-17 21:33:00,
2013-06-17 14:43:00,64.0,46.0,-100.00,West,270,6.0,9.0,53,-99.99,,,-99.99,,2013-06-17 21:43:00,
2013-06-17 14:52:00,64.0,47.0,-100.00,West,270,5.0,8.0,54,-99.99,,,-99.99,,2013-06-17 21:52:00,
2013-06-17 15:01:00,64.0,47.0,-100.00,West,270,5.0,8.0,54,-99.99,,,-99.99,,2013-06-17 22:01:00,
2013-06-17 15:11:00,64.0,45.0,-100.00,West,270,5.0,9.0,51,-99.99,,,-99.99,,2013-06-17 22:11:00,
2013-06-17 15:22:00,64.0,45.0,-100.00,West,270,5.0,9.0,51,-99.99,,,-99.99,,2013-06-17 22:22:00,
2013-06-17 15:33:00,64.0,43.0,-100.00,West,270,4.0,8.0,46,-99.99,,,-99.99,,2013-06-17 22:33:00,
2013-06-17 16:02:00,66.0,43.0,-100.00,West,270,3.0,4.0,44,-99.99,,,-99.99,,2013-06-17 23:02:00,
2013-06-17 17:01:00,62.0,42.0,-100.00,SW,225,3.0,5.0,48,-99.99,,,-99.99,,2013-06-18 00:01:00,
2013-06-17 17:22:00,62.0,42.0,-100.00,SW,225,3.0,5.0,48,-99.99,,,-99.99,,2013-06-18 00:22:00,
2013-06-17 17:32:00,62.0,43.0,-100.00,West,270,3.0,4.0,50,-99.99,,,-99.99,,2013-06-18 00:32:00,
2013-06-17 17:43:00,61.0,44.0,-100.00,West,270,3.0,4.0,54,-99.99,,,-99.99,,2013-06-18 00:43:00,
2013-06-17 17:52:00,60.0,45.0,-100.00,West,270,1.0,2.0,58,-99.99,,,-99.99,,2013-06-18 00:52:00,
2013-06-17 18:01:00,60.0,45.0,-100.00,West,270,1.0,2.0,58,-99.99,,,-99.99,,2013-06-18 01:01:00,
2013-06-17 18:11:00,59.0,47.0,-100.00,West,270,3.0,8.0,64,-99.99,,,-99.99,,2013-06-18 01:11:00,
2013-06-17 18:23:00,58.0,49.0,-100.00,West,270,2.0,3.0,72,-99.99,,,-99.99,,2013-06-18 01:23:00,
2013-06-17 18:33:00,57.0,50.0,-100.00,West,270,3.0,5.0,78,-99.99,,,-99.99,,2013-06-18 01:33:00,
2013-06-17 18:44:00,57.0,50.0,-100.00,West,270,3.0,5.0,78,-99.99,,,-99.99,,2013-06-18 01:44:00,
2013-06-17 18:53:00,56.0,50.0,-100.00,West,270,3.0,6.0,81,-99.99,,,-99.99,,2013-06-18 01:53:00,
2013-06-17 19:02:00,55.0,51.0,-100.00,West,270,3.0,6.0,85,-99.99,,,-99.99,,2013-06-18 02:02:00,
2013-06-17 19:11:00,55.0,51.0,-100.00,West,270,3.0,6.0,85,-99.99,,,-99.99,,2013-06-18 02:11:00,
2013-06-17 19:22:00,56.0,52.0,-100.00,West,270,1.0,1.0,87,-99.99,,,-99.99,,2013-06-18 02:22:00,
2013-06-17 19:34:00,56.0,52.0,-100.00,West,270,1.0,3.0,88,-99.99,,,-99.99,,2013-06-18 02:34:00,
2013-06-17 19:43:00,56.0,52.0,-100.00,West,270,1.0,3.0,88,-99.99,,,-99.99,,2013-06-18 02:43:00,
2013-06-17 19:53:00,56.0,52.0,-100.00,West,270,1.0,3.0,88,-99.99,,,-99.99,,2013-06-18 02:53:00,
2013-06-17 20:02:00,56.0,52.0,-100.00,SW,225,3.0,5.0,88,-99.99,,,-99.99,,2013-06-18 03:02:00,
2013-06-17 20:12:00,56.0,52.0,-100.00,SW,225,3.0,5.0,88,-99.99,,,-99.99,,2013-06-18 03:12:00,
2013-06-17 20:23:00,55.0,52.0,-100.00,West,270,1.0,3.0,88,-99.99,,,-99.99,,2013-06-18 03:23:00,
2013-06-17 20:33:00,55.0,51.0,-100.00,NW,315,2.0,4.0,88,-99.99,,,-99.99,,2013-06-18 03:33:00,
2013-06-17 20:42:00,55.0,51.0,-100.00,NW,315,2.0,4.0,88,-99.99,,,-99.99,,2013-06-18 03:42:00,
2013-06-17 20:53:00,55.0,51.0,-100.00,NW,315,2.0,4.0,88,-99.99,,,-99.99,,2013-06-18 03:53:00,
2013-06-17 21:01:00,54.0,51.0,-100.00,West,270,0.0,1.0,88,-99.99,,,-99.99,,2013-06-18 04:01:00,
2013-06-17 21:11:00,54.0,51.0,-100.00,West,270,0.0,1.0,88,-99.99,,,-99.99,,2013-06-18 04:11:00,
2013-06-17 21:22:00,54.0,51.0,-100.00,West,270,1.0,1.0,88,-99.99,,,-99.99,,2013-06-18 04:22:00,
2013-06-17 21:34:00,54.0,51.0,-100.00,West,270,2.0,3.0,88,-99.99,,,-99.99,,2013-06-18 04:34:00,
2013-06-17 21:43:00,54.0,51.0,-100.00,West,270,2.0,3.0,88,-99.99,,,-99.99,,2013-06-18 04:43:00,
2013-06-17 21:53:00,54.0,51.0,-100.00,SW,225,1.0,3.0,88,-99.99,,,-99.99,,2013-06-18 04:53:00,
2013-06-17 22:02:00,54.0,51.0,-100.00,West,270,2.0,4.0,89,-99.99,,,-99.99,,2013-06-18 05:02:00,
2013-06-17 22:12:00,54.0,51.0,-100.00,West,270,2.0,4.0,89,-99.99,,,-99.99,,2013-06-18 05:12:00,
2013-06-17 22:22:00,54.0,51.0,-100.00,West,270,1.0,3.0,89,-99.99,,,-99.99,,2013-06-18 05:22:00,
2013-06-17 22:33:00,54.0,51.0,-100.00,West,270,1.0,3.0,89,-99.99,,,-99.99,,2013-06-18 05:33:00,
2013-06-17 22:43:00,54.0,51.0,-100.00,West,270,1.0,3.0,89,-99.99,,,-99.99,,2013-06-18 05:43:00,
2013-06-17 22:53:00,54.0,51.0,-100.00,West,270,1.0,3.0,89,-99.99,,,-99.99,,2013-06-18 05:53:00,
2013-06-17 23:02:00,54.0,50.0,-100.00,West,270,1.0,1.0,89,-99.99,,,-99.99,,2013-06-18 06:02:00,
2013-06-17 23:11:00,54.0,50.0,-100.00,West,270,1.0,1.0,89,-99.99,,,-99.99,,2013-06-18 06:11:00,
2013-06-17 23:23:00,54.0,50.0,-100.00,West,270,1.0,1.0,89,-99.99,,,-99.99,,2013-06-18 06:23:00,
2013-06-17 23:32:00,53.0,51.0,-100.00,SW,225,1.0,3.0,90,-99.99,,,-99.99,,2013-06-18 06:32:00,
2013-06-17 23:43:00,53.0,50.0,-100.00,North,-999,0.0,0.0,90,-99.99,,,-99.99,,2013-06-18 06:43:00,
2013-06-17 23:53:00,53.0,51.0,-100.00,North,-999,0.0,0.0,91,-99.99,,,-99.99,,2013-06-18 06:53:00,